Current weather by "City, St" or "zip code"  
 

Current Conditions: Broomfield / Jeffco, CO

Mostly Cloudy


41.0 F

Last Updated on Oct 24 2020, 6:47 pm MDT
Humidity: 49%
Wind Speed: N 8.1 mph
Barometer 29.88 in
Dewpoint: 23.0 F
Visibility: 10.00 mi
Precip: --
Heat Index: NA
Wind Chill: 36 F
Current conditions at:

Broomfield / Jeffco, CO (KBJC)

Lat: 39.90085 Lon: 105.10417

Local Radar Image active severe weather and emergency alerts image image weather storm and storm spotter reports image weather observation monitoring service image
Local
Radar
Active
Alerts
Storm Reports Obs
Monitoring

Sign-up For Email & Text Message Weather Alert Notification Services



Advertise Here

Observation History for Broomfield / Jeffco, CO


Time Wind
(mph)
Vis
(mi)
Weather Precip (in) Temperature (F) Relative
Humidity
Wind
Chill
(F)
Heat
Index
(F)
Pressure
Air Dwpt altimeter
(in)
sea level
(mb)
Rmks
6:47 pm MDT N 8.1 10.00 Mostly Cloudy -- 41.0 23.0 49% 36 NA 29.88 M
5:47 pm MDT N 11.5 10.00 Mostly Cloudy -- 45.0 21.2 39% 39 NA 29.83 M
4:55 pm MDT N 10.4 10.00 Mostly Cloudy -- 50.0 21.2 32% 46 NA 29.83 M
3:45 pm MDT NE 5.8 10.00 Partly Cloudy -- 48.0 21.2 34% 45 NA 29.81 M
12:47 pm MDT N 9.2 10.00 Mostly Cloudy -- 50.0 26.6 40% 46 NA 29.81 M
11:57 am MDT NE 5.8 10.00 Mostly Cloudy -- 48.0 28.4 46% 45 NA 29.82 M
10:45 am MDT N 4.6 10.00 Mostly Cloudy -- 37.0 28.4 70% 33 NA 29.84 M
9:45 am MDT E 3.5 10.00 Mostly Cloudy -- 28.0 28.4 100% NA NA 29.84 M
7:45 am MDT W 5.8 35.00 Mostly Cloudy -- 27.0 23.0 86% 20 NA 29.80 M
6:55 am MDT NW 8.1 8.00 A Few Clouds -- 27.0 24.8 93% 19 NA 29.84 M
5:52 am MDT S 3.5 7.00 Fair -- 27.0 24.8 93% NA NA 29.82 M
4:54 am MDT N 5.8 7.00 Fair -- 27.0 24.8 93% 20 NA 29.83 M
3:54 am MDT NE 4.6 7.00 Fair -- 27.0 23.0 86% 22 NA 29.84 M
2:55 am MDT W 6.9 10.00 Fair -- 25.0 23.0 93% 17 NA 29.90 M
1:54 am MDT N 0.0 10.00 Fair -- 27.0 23.0 86% NA NA 29.93 M
12:53 am MDT N 0.0 10.00 Fair -- 28.0 24.8 86% NA NA 29.97 M
11:54 pm MDT NW 3.5 10.00 Partly Cloudy -- 28.0 23.0 80% NA NA 30.00 M
9:47 pm MDT N 6.9 10.00 Partly Cloudy -- 28.0 23.0 80% 21 NA 30.06 M
8:47 pm MDT N 0.0 10.00 Partly Cloudy -- 30.0 24.8 80% NA NA 30.10 M

Regional Weather Observation


Erie Municipal Airport, CO (KEIK)

Fair
38.0 F

Broomfield / Jeffco, CO (KBJC)

Mostly Cloudy
41.0 F

Fort Collins/Loveland - Northern Colorado Regional Airport, CO (KFNL)

A Few Clouds
39.0 F

Greeley, Greeley-Weld County Airport, CO (KGXY)

Mostly Cloudy
36.0 F

Denver, Denver International Airport, CO (KDEN)

Mostly Cloudy
41.0 F

Buckley Air Force Base Airport, CO (KBKF)

Mostly Cloudy
40.0 F